Theta_e
318 317 317 317 318 317 316 318 319 319 320 322 323 322 322 322 323 323 322 322 322 321 318 316 316 315 315 314 313 312 312 312 312 312 311 311 311 311 310 310 310 310 312 314 316 317 318 319 320 322 323 324 325 326 328 328 328 328 329 328 328 327 327 327 328 327 327 328 328 328 327 327 326 327 326 324 324 324 323 321 320 319 318 319 320 320 320
317 317 317 317 318 318 318 318 319 319 321 321 321 321 321 321 322 322 321 322 320 317 316 315 314 314 313 312 311 311 310 310 311 310 310 310 310 310 309 309 308 308 310 312 314 316 317 318 319 320 321 322 323 324 326 326 327 327 328 328 327 327 326 327 329 328 327 327 328 328 327 327 327 327 325 323 324 323 321 319 318 318 318 319 320 320 319
317 317 317 316 317 319 319 319 318 318 319 319 319 319 319 320 322 321 320 321 319 316 314 313 311 311 311 310 310 310 309 309 309 309 309 309 309 309 308 308 307 307 309 312 314 314 314 314 316 317 318 319 320 322 323 325 326 326 327 327 328 327 326 327 328 328 327 326 327 327 327 327 326 325 324 323 322 321 319 319 318 317 317 318 319 319 319
317 318 318 319 318 318 318 317 316 317 318 318 318 317 316 318 320 319 319 320 318 315 313 311 309 309 308 308 308 309 308 309 309 308 308 308 308 308 307 307 306 306 308 310 311 311 311 311 312 314 315 317 318 320 321 322 324 325 326 327 328 327 326 327 327 326 326 326 327 327 327 326 325 324 323 322 321 320 319 319 318 318 318 318 317 318 318
316 317 319 319 318 318 318 315 314 315 316 316 316 315 314 315 316 318 319 318 316 314 311 309 307 307 307 306 307 307 308 308 308 307 307 307 307 307 306 306 306 306 306 308 309 310 310 310 310 311 312 314 315 316 318 320 323 324 325 325 326 327 327 326 326 327 327 327 327 326 326 326 325 323 322 321 320 321 320 319 320 320 319 318 318 317 318
315 317 319 318 318 319 317 313 312 314 315 315 314 313 313 313 313 315 316 314 312 311 309 307 305 305 305 305 305 306 307 307 307 307 306 306 306 306 306 305 305 305 306 307 308 309 309 309 309 309 310 311 312 314 315 317 320 322 322 322 325 327 326 326 327 327 327 326 326 326 326 326 324 322 321 321 321 320 320 319 320 320 319 318 318 317 317
315 317 316 316 318 317 314 312 311 312 313 313 312 311 311 311 311 312 313 311 310 309 308 306 305 304 304 304 304 305 306 306 307 306 306 306 306 305 305 305 305 305 306 307 308 308 308 308 309 309 309 310 311 312 314 315 316 317 317 319 324 326 325 326 327 326 326 326 325 325 325 325 323 321 320 320 320 319 318 318 318 318 317 317 316 315 315
314 315 316 316 316 315 313 311 310 311 312 312 312 311 309 309 309 310 311 310 309 309 308 306 305 305 304 303 303 303 305 305 306 306 305 305 305 305 304 304 303 304 306 306 307 308 308 308 308 308 309 309 310 311 312 313 314 314 313 315 319 322 322 324 324 324 325 325 324 324 324 323 322 319 318 318 317 316 316 316 316 316 316 316 315 314 314
313 314 315 315 315 313 312 311 310 310 310 310 311 311 309 308 308 309 309 309 308 308 308 307 306 306 305 304 302 303 304 304 304 304 304 304 304 303 303 302 302 302 302 303 305 306 307 307 307 308 308 309 310 310 310 312 312 313 313 313 314 316 316 318 321 322 322 322 321 321 322 321 319 317 316 316 315 315 315 315 316 316 315 315 314 314 314
313 313 315 314 315 315 312 310 309 309 310 309 309 311 309 307 308 308 308 308 308 307 308 307 307 308 307 304 302 302 303 303 303 303 303 302 302 302 302 302 301 301 301 301 302 303 304 305 306 308 309 309 310 309 309 310 311 312 313 313 313 313 312 313 316 318 319 319 319 319 320 319 317 316 316 317 317 316 316 315 315 315 314 314 313 313 315
313 314 315 314 314 313 309 308 308 309 310 309 310 312 311 307 307 308 307 307 307 306 306 305 305 308 307 302 301 302 302 303 303 302 302 302 302 302 302 302 302 302 301 301 300 301 302 302 303 305 307 309 310 309 308 308 309 310 310 311 311 311 311 311 313 315 317 317 317 317 317 317 316 317 317 317 317 316 315 315 314 313 312 313 314 314 316
312 313 314 312 311 309 307 307 308 309 309 309 311 315 312 307 306 307 306 306 305 305 305 303 302 304 303 301 300 301 302 302 301 301 301 301 301 301 301 302 301 301 301 300 299 299 300 301 301 302 304 306 308 307 307 308 307 307 307 308 309 309 309 311 312 313 314 315 315 315 315 315 315 315 315 316 316 316 315 314 314 313 313 314 315 316 316
311 312 313 311 309 307 306 306 308 308 309 310 312 313 309 305 305 305 303 303 302 301 301 300 299 300 300 300 300 300 300 301 301 300 300 300 300 300 300 300 301 301 301 300 299 299 298 299 300 300 300 302 302 303 305 305 304 304 305 306 307 308 309 310 311 311 312 312 312 312 313 313 312 311 311 312 313 314 314 314 313 313 314 314 315 315 315
313 312 312 311 309 307 306 307 308 308 310 311 310 307 304 304 304 303 301 301 300 299 299 299 299 299 300 300 300 300 300 300 299 299 299 299 299 299 299 299 300 300 301 300 300 300 299 299 299 298 298 298 298 299 300 300 300 301 303 304 305 305 306 307 308 308 308 309 309 309 310 310 310 310 310 310 311 311 312 312 312 313 313 313 313 313 313
312 312 310 311 310 307 306 308 308 308 309 309 307 304 303 303 302 301 300 300 300 300 300 300 300 300 300 300 300 300 299 299 299 299 300 300 300 300 300 299 299 300 301 301 300 301 300 299 299 299 299 299 298 298 299 299 298 298 299 301 302 302 303 304 305 305 305 306 307 307 307 307 307 307 307 307 308 308 308 309 310 309 309 309 308 308 309
309 310 309 309 307 306 306 307 307 307 306 306 305 304 303 302 301 301 300 300 300 300 300 300 301 301 300 300 300 300 300 300 300 300 300 301 301 300 301 301 300 300 300 300 300 300 301 300 300 300 300 301 301 300 301 301 300 299 298 298 298 299 299 300 301 303 303 304 305 305 306 305 303 303 302 302 303 303 304 306 306 306 306 307 307 306 306
307 307 307 306 306 306 307 307 306 306 305 305 304 303 302 302 301 301 300 300 301 301 301 301 301 300 300 300 300 300 300 300 300 300 300 301 301 301 301 301 301 300 300 300 300 300 300 301 301 300 300 301 301 301 302 302 302 302 301 300 299 299 298 297 298 298 300 301 302 303 303 302 301 301 301 301 301 301 302 303 303 302 304 305 306 306 306
307 307 306 307 307 307 307 306 306 305 305 304 303 303 302 302 301 301 301 301 301 301 300 300 300 300 300 300 300 300 300 300 300 300 300 300 300 301 301 301 300 301 300 300 300 300 300 300 300 300 300 300 301 301 301 302 302 302 302 302 302 301 300 299 298 298 298 299 300 300 300 300 299 299 299 300 300 300 300 300 300 300 301 303 303 303 304
307 307 307 307 307 306 306 306 305 305 304 304 303 303 302 302 301 301 301 301 300 300 300 300 300 300 300 299 299 299 299 299 299 299 299 299 299 300 300 300 300 300 300 300 300 300 299 300 300 300 300 300 300 300 300 301 301 302 302 302 302 302 301 301 300 301 301 301 300 300 300 300 300 300 299 299 299 299 300 300 301 301 302 303 304 304 304
307 307 306 306 306 306 305 305 305 304 304 303 303 302 302 302 302 301 301 301 301 300 300 300 300 300 300 299 299 299 299 299 299 299 299 299 299 299 299 299 299 299 299 299 299 298 298 298 299 300 300 300 300 300 300 300 301 301 301 301 301 301 301 301 301 301 302 302 302 301 300 299 299 299 299 298 298 298 300 302 302 302 303 304 304 304 304
305 305 305 305 305 305 304 304 304 304 304 304 303 303 303 302 302 302 302 302 301 302 301 301 301 300 300 300 299 299 299 299 299 299 300 299 300 300 300 300 300 299 299 299 299 299 298 298 298 299 300 300 300 300 300 300 300 301 301 301 301 301 300 300 301 301 301 302 302 302 302 301 299 299 299 298 297 297 297 299 301 302 302 302 302 302 302
305 305 305 305 305 304 304 304 304 304 304 304 304 304 303 303 303 302 302 302 302 302 302 301 301 301 300 300 300 300 300 300 300 300 300 300 300 300 300 300 300 300 299 300 299 299 299 298 298 298 299 300 300 300 300 300 300 300 301 301 301 301 299 299 300 301 301 301 301 302 302 302 301 301 300 300 299 297 296 296 297 298 298 298 298 298 298
306 306 305 305 305 304 304 304 303 304 304 304 304 303 303 303 302 302 302 302 302 302 301 301 301 301 300 300 300 300 300 300 300 300 300 300 299 300 300 300 300 300 299 299 299 299 299 298 298 298 298 299 299 300 300 300 300 300 301 300 301 301 300 300 300 301 300 300 301 301 301 301 301 301 301 301 300 298 298 297 296 297 297 297 297 297 297
305 305 305 305 304 304 304 303 303 303 303 303 303 303 303 303 303 303 303 303 302 302 302 302 302 301 301 301 300 300 300 299 299 299 300 299 299 299 300 299 299 299 299 299 299 299 299 298 297 297 298 299 299 299 300 300 300 300 300 300 300 300 300 300 300 300 300 300 300 301 301 301 301 301 301 302 300 299 299 298 298 297 297 297 297 297 297
305 304 304 304 304 303 303 302 302 301 302 302 302 302 302 302 303 303 303 303 303 303 302 302 302 302 301 301 300 300 301 300 299 299 300 299 299 299 299 299 298 298 298 298 298 298 299 298 297 297 298 298 299 299 300 300 300 300 300 300 299 299 299 300 300 300 300 300 300 300 300 300 300 300 301 301 300 300 299 299 299 299 298 298 298 297 297
304 304 303 303 303 303 302 302 302 301 301 301 301 301 301 301 301 301 301 301 302 302 302 302 301 301 301 301 300 300 300 299 299 300 299 299 299 299 298 298 298 298 298 298 298 298 298 297 298 298 298 298 298 299 299 300 300 300 300 300 299 298 298 299 299 299 299 299 299 299 300 300 300 300 300 300 300 300 300 300 300 300 300 299 298 297 297
303 303 303 303 303 303 302 302 302 301 301 301 301 300 300 300 300 300 300 300 300 301 301 301 301 301 301 300 300 299 299 299 299 299 299 299 299 298 298 298 297 297 297 297 297 297 297 297 298 298 298 298 298 298 299 299 300 300 300 300 299 299 299 299 299 299 299 299 299 299 299 299 299 299 299 299 299 300 300 299 300 300 300 299 298 298 298
304 303 303 303 303 302 302 301 301 301 301 301 301 301 300 300 300 300 300 300 300 300 300 300 300 300 300 300 300 300 300 299 299 299 299 298 298 298 298 297 297 296 296 296 296 297 297 297 298 298 298 298 298 298 299 299 299 300 300 300 300 299 299 299 299 299 299 299 298 298 298 299 299 299 299 299 299 299 299 299 299 300 300 299 298 298 298
303 303 302 302 302 301 301 301 301 301 301 301 300 301 301 300 300 300 300 300 300 300 300 300 300 300 300 300 300 300 299 299 299 299 298 298 298 298 297 296 296 296 296 295 296 297 297 297 298 298 298 298 297 297 298 299 299 300 300 300 300 299 299 298 298 298 299 299 298 297 297 298 299 299 299 299 298 298 299 298 298 298 299 299 298 298 298
302 302 302 302 302 301 301 301 301 301 301 301 301 301 300 300 300 300 300 300 300 300 300 300 300 300 300 300 300 299 299 299 299 299 298 299 298 297 295 295 295 295 295 296 297 297 297 297 297 297 297 297 297 297 298 298 299 299 300 300 300 299 299 298 297 297 298 299 298 298 298 298 299 298 298 298 298 298 298 298 298 297 298 298 298 297 297
302 302 302 302 302 302 302 301 301 301 301 301 301 301 300 300 301 300 300 300 300 300 300 300 300 300 300 300 299 299 299 299 299 298 298 297 297 295 295 295 295 295 295 296 297 298 298 298 298 298 298 297 297 297 297 298 298 299 299 300 300 299 299 298 296 296 297 298 297 298 298 298 298 298 297 298 298 297 298 298 298 297 297 297 297 297 297
302 302 302 301 302 302 301 301 301 301 301 301 300 301 301 301 300 300 300 300 300 300 300 300 300 300 300 300 299 299 299 299 298 297 296 296 296 295 295 295 295 295 296 297 297 297 297 298 298 298 298 298 298 297 297 297 298 298 299 299 299 299 299 297 296 296 297 297 297 298 298 298 298 298 298 297 297 297 297 297 297 297 297 297 297 297 296
302 302 302 301 301 302 302 301 301 301 301 301 301 300 300 300 300 300 300 300 300 300 300 300 300 300 300 300 300 300 299 298 297 296 296 296 296 296 295 295 295 296 296 297 297 297 298 298 297 297 297 298 298 298 298 297 297 298 299 299 299 299 298 298 297 296 297 297 297 298 298 297 297 298 298 297 297 296 297 297 297 296 296 296 296 296 296
303 302 302 301 302 302 301 301 301 301 301 300 300 300 300 300 300 300 300 300 300 300 300 300 300 300 300 300 300 299 298 297 296 296 296 296 295 295 295 295 295 295 295 295 297 298 298 298 298 297 297 297 297 298 298 297 297 298 299 299 299 299 299 298 297 297 297 297 297 297 298 298 297 297 297 297 296 296 296 296 296 296 296 296 296 296 295
302 301 301 301 301 301 300 301 301 301 301 300 300 300 300 300 300 300 300 300 300 300 300 300 300 300 300 299 298 297 297 296 296 296 296 296 295 296 295 295 295 295 295 295 297 298 298 298 298 297 297 297 297 297 297 297 297 298 299 299 299 299 299 298 297 297 297 297 297 297 298 298 297 297 297 296 296 296 295 295 295 296 296 296 296 295 295
301 301 301 301 301 301 300 300 301 300 300 300 300 300 300 300 300 300 300 300 300 300 300 300 300 300 299 299 297 297 296 297 296 296 296 296 296 296 296 295 295 295 295 296 298 298 297 297 297 297 296 296 296 297 297 297 297 298 299 299 299 299 298 298 297 297 296 296 297 297 297 296 296 296 296 296 296 296 295 295 295 296 295 295 295 295 295
301 301 301 301 301 300 300 301 300 300 300 300 300 300 300 300 300 300 300 300 300 300 300 300 300 300 299 299 298 297 297 297 296 296 296 296 296 296 296 296 296 295 295 296 298 297 296 296 297 296 295 296 297 297 297 297 297 298 299 299 299 299 298 297 297 297 296 296 297 297 297 296 296 296 296 295 295 295 295 295 295 295 295 295 295 294 295
300 301 301 301 300 300 300 300 300 300 300 300 300 300 300 300 300 300 300 300 300 300 300 300 300 300 299 299 299 298 298 297 297 297 297 296 296 296 296 296 296 296 296 296 297 296 295 295 297 297 296 296 297 297 297 297 297 298 298 298 299 298 298 297 297 297 296 296 296 297 297 296 296 296 296 295 295 295 295 295 295 295 295 295 294 294 294
301 301 301 300 300 300 300 300 300 300 300 300 300 300 300 300 300 300 300 301 301 301 300 300 300 300 299 299 299 299 299 299 298 298 297 297 297 297 296 295 295 296 296 296 297 296 294 294 296 298 298 297 297 297 297 297 297 297 298 298 299 298 298 297 297 296 296 296 296 296 296 296 296 296 296 295 295 295 295 295 295 295 295 295 294 294 294
301 301 301 300 300 300 300 300 300 300 300 300 300 300 300 300 300 301 301 301 301 301 301 300 300 300 300 300 299 299 299 299 299 299 299 298 298 297 296 296 296 297 296 296 296 295 293 292 295 298 298 297 297 297 298 298 298 297 297 298 298 298 298 297 297 296 296 296 296 296 296 296 296 295 295 295 295 295 295 295 295 295 295 295 295 294 294
301 301 301 300 300 300 300 300 300 300 300 300 300 300 300 300 301 301 301 301 301 301 301 300 300 300 300 300 300 300 299 299 299 299 299 299 298 297 297 296 296 296 296 295 294 293 292 293 295 297 297 298 297 298 297 297 297 297 297 297 298 297 297 297 297 296 296 296 296 296 296 296 295 295 295 295 295 295 295 295 295 295 295 295 295 294 294
301 301 301 300 300 300 300 300 300 300 300 300 300 300 300 301 301 301 301 301 300 300 300 300 300 300 300 299 299 299 299 299 299 299 299 299 298 298 297 297 296 295 295 295 293 292 294 295 296 296 296 297 297 296 296 296 296 296 296 296 297 297 296 297 296 296 296 295 295 296 296 296 296 295 295 295 295 295 295 295 295 295 295 295 295 294 294
301 301 301 300 300 300 300 300 300 300 300 300 300 300 300 301 301 301 301 301 300 300 300 300 300 300 300 300 300 300 299 299 299 299 299 299 299 298 298 297 296 295 295 294 292 292 293 295 295 296 296 295 294 294 294 294 294 294 295 295 296 296 296 296 296 296 296 296 295 296 296 296 296 295 295 295 295 295 295 295 295 295 295 295 294 294 294
301 300 300 300 300 300 300 299 299 300 300 300 300 300 300 300 300 300 300 300 300 300 300 300 300 300 300 300 300 300 300 299 299 299 299 299 298 298 298 297 296 295 294 293 291 291 293 294 294 295 295 294 293 293 293 292 293 294 294 294 295 295 295 296 296 296 296 296 295 295 295 295 296 296 295 295 295 295 295 295 295 295 294 294 294 294 294
300 300 300 300 300 300 300 299 300 299 300 300 300 300 300 300 300 300 300 300 300 300 300 300 300 300 300 300 300 300 299 299 299 299 298 298 298 297 297 296 295 295 294 292 291 291 293 294 293 293 293 292 292 291 291 292 293 294 294 294 294 294 295 295 296 296 296 296 295 295 295 295 295 296 295 295 295 295 295 295 295 294 294 294 294 294 293
300 300 300 300 300 300 300 299 299 299 299 299 300 300 300 299 300 300 300 300 300 300 300 300 300 300 300 300 300 300 299 299 299 299 298 298 297 297 297 296 295 295 295 294 292 292 292 292 291 291 291 290 290 289 289 291 292 293 294 294 294 294 294 295 295 295 296 296 296 295 295 295 295 295 295 295 295 294 294 294 294 294 294 294 294 293 293
300 300 300 299 299 299 299 299 299 299 299 299 300 300 299 299 300 300 300 300 300 300 300 300 300 300 300 300 300 299 299 299 299 298 298 298 298 297 297 296 295 295 295 294 293 292 292 291 290 290 289 288 288 288 288 289 292 293 294 294 294 294 293 294 294 295 295 296 296 295 295 295 295 295 295 294 294 294 294 294 294 294 294 294 294 293 293
300 300 299 299 299 299 299 299 299 299 299 299 299 299 299 299 300 300 300 300 300 300 300 300 300 300 299 299 299 299 299 299 299 298 298 298 298 297 297 296 296 295 295 295 294 293 293 293 292 291 290 289 288 288 288 289 292 294 294 294 294 294 293 293 294 295 295 295 295 295 295 295 295 294 294 294 294 294 294 294 294 294 294 294 294 293 293
299 299 299 299 299 299 299 299 299 299 299 299 299 299 299 299 300 300 300 300 300 300 300 299 299 300 299 299 299 299 298 298 298 298 298 297 298 297 297 296 296 295 295 295 295 295 294 294 293 293 292 290 289 290 291 292 293 294 294 294 294 293 293 293 294 294 295 295 295 295 295 295 294 294 294 294 294 294 294 294 294 294 294 294 293 293 293
299 299 299 299 299 299 299 299 299 299 299 299 300 299 299 299 299 300 300 299 299 299 299 299 299 299 299 299 299 298 298 298 298 298 298 298 298 298 297 297 296 296 295 295 295 295 294 294 293 294 293 292 291 292 293 294 294 294 294 293 293 292 293 293 294 294 294 295 295 295 295 295 294 294 294 294 294 294 294 294 293 293 294 294 293 293 293
299 299 299 299 299 299 298 298 298 299 299 299 299 299 299 299 299 299 300 299 298 299 299 299 299 299 299 298 298 298 298 298 297 298 297 297 297 297 297 297 296 295 295 295 295 294 294 294 294 294 293 293 292 292 292 292 292 292 292 293 293 293 293 294 294 294 294 294 295 295 295 294 294 294 294 294 294 294 293 293 293 293 293 293 293 293 293
299 299 299 298 298 298 298 298 299 299 299 299 299 299 299 298 299 299 299 299 299 298 299 299 299 299 298 298 298 298 297 297 297 297 297 296 296 296 296 296 295 295 295 294 294 294 294 294 294 293 293 293 293 292 293 292 291 291 292 293 293 293 293 293 293 293 293 294 294 294 294 294 294 294 293 294 293 293 293 293 293 293 293 293 293 292 292
Wind_Speed
7 5 3 3 5 5 4 3 3 3 5 8 7 5 4 4 1 1 3 3 4 6 8 8 8 9 9 11 13 14 15 15 15 15 16 17 18 19 19 19 20 21 21 22 21 20 19 16 15 15 14 12 12 11 11 13 11 12 19 21 21 25 27 28 31 32 30 28 28 28 27 26 24 22 20 19 17 15 14 14 12 11 11 11 10 10 12
7 4 3 2 6 8 2 4 7 7 8 9 8 7 7 5 5 4 3 6 8 7 6 8 10 11 12 13 14 16 17 17 17 17 18 19 19 19 19 18 19 19 19 20 20 19 19 19 18 17 16 15 14 12 12 13 13 15 20 22 21 26 30 30 32 34 33 31 29 28 27 26 25 22 20 19 18 15 14 14 13 12 12 12 10 10 12
5 4 2 2 5 7 3 11 11 10 11 10 9 10 10 7 6 4 2 5 6 7 8 12 13 14 15 15 16 17 18 18 18 18 18 19 18 18 19 19 19 19 19 19 19 20 20 20 20 18 17 17 14 13 13 13 14 15 20 25 24 26 30 30 30 31 31 30 29 28 27 26 25 23 21 20 18 16 15 16 14 13 13 13 11 11 11
3 3 3 3 5 4 8 13 13 11 11 10 9 10 9 8 8 6 3 3 4 6 9 12 14 15 16 17 17 17 17 18 19 19 19 19 19 19 20 20 20 19 20 19 19 20 21 21 21 19 18 17 14 13 13 14 15 14 18 26 27 27 29 29 27 26 28 30 29 28 28 28 27 26 25 22 20 19 18 17 16 14 14 14 13 13 11
2 4 4 4 4 3 3 7 10 9 9 8 8 10 10 10 9 6 3 4 5 7 9 10 11 13 15 17 18 18 17 18 19 19 19 19 20 20 20 20 20 20 20 19 19 19 19 19 20 19 17 16 15 13 11 10 10 11 15 21 25 27 29 28 27 28 29 30 31 31 31 31 30 30 28 26 25 24 22 20 19 16 15 14 12 13 12
1 5 5 2 1 2 1 4 7 7 8 9 10 10 11 11 9 7 6 8 8 9 10 9 10 12 15 18 20 20 19 19 18 18 19 19 19 20 20 20 21 20 21 21 19 18 18 18 18 17 17 16 14 11 8 3 5 10 12 16 23 27 29 30 31 32 32 33 35 35 34 33 33 31 30 29 27 26 23 22 21 17 13 11 10 11 11
1 3 3 1 2 2 5 5 8 9 7 9 12 12 12 12 11 9 9 9 9 10 11 11 12 14 16 19 21 22 21 20 19 19 20 19 19 20 21 22 23 23 22 23 22 21 20 20 19 19 19 17 14 11 7 4 6 11 14 18 24 28 28 30 32 33 35 36 36 35 33 33 33 31 30 30 27 24 21 19 17 13 9 8 9 9 8
2 2 1 0 2 4 6 7 10 10 6 5 8 9 11 13 10 9 8 8 9 10 10 11 12 15 18 21 23 23 21 20 20 20 19 19 19 20 21 23 26 26 25 25 24 23 22 22 21 22 21 18 16 15 12 9 9 10 14 18 23 25 26 28 29 31 35 37 35 34 34 33 33 31 30 28 24 22 20 17 14 11 10 9 9 8 8
3 1 2 3 5 4 5 6 7 8 5 4 3 4 7 11 11 10 7 6 8 7 7 8 9 10 12 16 19 22 21 18 19 20 19 19 19 19 20 23 26 28 27 26 25 24 24 24 24 24 23 21 20 20 18 16 13 11 12 17 21 22 22 25 28 30 31 33 33 33 33 32 31 29 26 22 20 19 18 16 13 12 12 12 11 10 10
3 2 3 3 3 2 4 6 6 6 4 3 2 1 3 9 13 12 8 6 7 6 6 6 0 4 3 7 11 18 20 17 16 17 18 18 19 19 19 22 25 27 28 27 25 24 25 26 25 24 24 24 24 26 25 22 20 18 16 16 18 19 20 22 26 28 28 28 29 30 29 28 26 24 21 18 17 16 15 14 12 11 11 12 12 11 10
4 3 2 2 1 2 4 7 8 8 6 3 1 2 2 7 12 12 9 7 8 6 7 10 6 1 3 3 9 16 17 15 16 18 19 19 19 19 19 20 22 24 24 25 25 25 26 26 25 24 23 22 24 27 29 27 26 26 23 19 18 16 16 17 20 23 22 21 22 21 20 18 17 18 17 17 16 15 14 13 11 10 11 11 11 11 10
5 3 2 3 3 2 4 9 9 8 5 2 2 2 2 7 11 11 10 9 9 7 7 10 10 6 5 5 10 16 17 16 18 19 19 20 20 20 21 21 21 22 22 24 25 25 26 25 24 24 22 22 23 25 25 26 28 28 25 21 19 18 16 14 14 14 13 11 11 11 10 9 10 13 15 16 16 16 14 12 10 11 12 11 11 10 10
2 1 4 4 2 2 6 11 11 7 2 2 1 1 2 7 9 10 10 10 11 11 12 13 11 9 11 12 14 17 18 19 20 19 18 20 21 22 23 23 23 23 24 25 26 26 26 25 24 24 24 24 25 25 24 25 27 26 23 20 18 18 17 15 13 12 11 10 10 10 8 9 11 13 13 13 13 13 12 11 11 11 11 10 9 8 7
1 3 4 4 4 4 10 14 11 7 3 1 2 4 4 7 8 9 10 11 15 19 22 21 19 17 17 17 17 19 20 20 20 19 20 20 21 22 23 23 24 25 25 25 25 25 26 26 25 26 26 27 27 26 27 27 26 23 21 20 18 18 18 17 16 15 14 13 14 14 13 12 12 13 13 12 12 11 11 11 11 10 9 7 6 5 4
2 4 4 4 3 5 13 11 6 7 6 3 6 8 8 9 9 11 13 14 17 22 23 22 22 21 20 19 19 20 20 19 19 19 20 21 21 20 21 21 22 23 23 24 25 25 26 25 24 24 26 27 27 27 27 26 24 22 21 20 18 18 18 18 17 16 15 14 13 13 13 11 10 10 10 10 11 11 10 9 8 7 7 5 3 2 1
3 4 4 3 0 4 11 9 6 8 9 8 9 9 10 10 11 13 16 16 15 17 18 19 20 19 18 18 18 17 17 17 16 16 17 19 20 19 18 19 20 21 21 21 22 23 23 24 24 24 24 24 24 25 24 23 22 22 21 20 19 18 18 17 16 15 14 12 11 11 11 11 11 12 11 11 11 12 13 12 10 10 11 11 9 7 5
6 5 3 2 3 6 13 15 14 14 14 13 13 13 13 13 13 14 16 15 13 13 15 17 19 18 17 16 16 16 15 14 13 14 15 15 16 15 14 16 18 19 20 20 20 20 20 20 21 22 22 22 21 21 19 18 19 20 20 20 19 19 18 17 16 15 14 13 13 12 11 10 10 9 8 8 9 9 10 9 7 8 10 11 9 9 8
9 9 8 9 12 15 17 18 17 17 17 15 15 15 15 14 14 14 14 14 13 13 15 18 19 18 18 18 17 15 15 13 13 13 13 13 12 12 12 14 15 15 17 18 19 19 18 17 18 19 19 19 19 18 16 15 15 16 17 18 18 18 17 17 16 16 16 15 15 14 12 11 11 8 5 5 6 6 8 8 7 7 8 7 6 6 6
6 6 8 13 16 17 17 18 19 19 18 16 16 16 16 15 15 15 15 15 14 15 16 16 16 15 15 16 16 15 14 13 12 12 12 12 11 11 11 12 13 15 15 16 16 17 16 16 15 16 16 16 15 15 15 13 12 13 13 14 14 14 15 15 15 16 15 14 13 12 11 9 8 7 4 4 4 5 8 9 10 11 10 9 9 8 7
7 7 11 16 18 18 17 17 17 17 18 17 16 16 16 16 15 15 15 15 14 14 13 13 13 12 12 12 12 12 12 11 10 10 11 11 11 10 10 11 12 13 14 14 15 15 15 14 13 13 14 14 13 13 13 12 11 12 11 11 12 11 11 12 13 13 13 13 12 12 11 10 8 6 6 6 5 5 6 8 9 9 9 11 12 11 11
9 10 13 16 16 15 16 16 16 16 16 16 16 16 15 15 14 14 13 12 11 11 11 11 11 11 9 8 9 9 8 8 8 8 7 8 9 9 9 10 11 12 12 12 13 13 14 14 13 12 12 11 11 12 11 10 11 12 10 9 11 11 9 11 12 11 11 11 10 10 11 11 11 11 12 13 10 6 4 5 6 5 5 6 8 8 9
6 7 10 10 10 9 12 14 15 15 15 15 15 15 15 14 13 12 12 11 10 10 10 10 9 8 7 7 8 7 6 5 6 7 6 6 8 8 8 9 10 10 10 10 10 11 12 13 13 12 11 10 9 10 10 10 10 10 9 8 10 12 12 11 12 10 10 10 10 8 8 9 10 11 13 15 15 12 8 5 3 3 3 4 5 5 4
8 10 12 13 12 12 12 13 13 13 13 13 12 12 12 12 12 12 11 10 10 9 8 7 6 5 5 6 7 7 6 6 6 6 6 8 9 7 8 9 10 10 10 9 10 11 10 10 12 12 10 9 8 8 8 8 8 8 8 7 7 8 10 10 11 10 9 10 10 8 7 7 8 9 10 13 15 15 14 11 7 5 3 3 3 2 1
13 14 15 14 14 14 13 12 12 12 12 12 11 11 10 10 10 10 9 8 8 7 6 5 5 5 5 4 4 6 7 8 8 6 4 7 10 9 8 10 11 11 11 11 11 11 10 10 12 11 9 9 9 7 7 7 7 7 7 7 6 4 3 6 9 8 8 9 9 8 7 7 6 6 7 9 12 14 15 14 12 10 8 6 5 4 3
15 15 15 15 14 14 13 11 11 11 11 11 11 10 9 9 9 8 8 7 7 6 5 4 4 4 4 4 5 6 6 7 8 7 4 6 9 10 9 11 11 11 12 12 11 11 11 12 13 12 9 9 8 7 6 6 6 6 6 6 7 6 3 6 8 8 6 8 9 7 7 7 6 4 5 7 9 10 11 12 11 11 11 10 7 5 5
17 16 15 14 13 12 11 11 11 10 10 11 11 10 9 9 9 9 8 7 6 5 5 4 4 4 4 4 5 6 6 5 6 8 8 8 9 9 10 11 12 12 13 13 11 11 12 12 11 11 11 10 8 7 7 5 5 6 6 6 8 8 5 6 9 9 6 6 7 6 6 6 5 5 5 6 6 7 9 10 9 8 11 12 10 8 7
14 13 13 12 11 9 10 11 11 10 10 10 10 9 9 8 8 8 8 6 6 6 4 4 3 3 3 3 3 4 5 5 6 7 8 8 8 9 10 11 12 13 14 13 12 12 14 13 10 9 10 10 8 7 6 5 5 5 5 5 7 8 7 8 9 9 6 5 4 4 4 5 6 6 6 5 5 5 7 8 8 6 8 11 12 11 9
11 10 9 10 11 11 10 10 10 9 8 8 8 7 7 7 6 6 6 5 5 5 4 3 3 3 3 3 3 4 4 5 6 7 8 8 8 8 10 11 13 15 15 14 13 13 13 12 11 10 9 9 8 7 6 5 5 5 5 5 5 6 5 5 5 6 6 7 7 6 5 6 6 6 5 5 5 5 5 4 5 5 6 8 10 11 10
11 10 10 11 12 11 9 9 9 8 7 6 5 5 5 5 5 5 4 4 4 3 3 3 3 3 2 3 4 4 5 6 6 6 7 7 6 6 9 12 15 16 15 14 14 15 14 11 10 10 9 9 8 7 5 4 4 4 4 4 4 3 3 3 3 3 4 5 8 8 7 7 5 4 4 4 5 5 4 3 2 3 4 7 9 8 9
10 10 10 10 10 9 8 8 7 5 4 4 4 4 4 4 4 4 4 4 4 4 4 4 3 4 4 4 4 5 5 6 5 5 7 7 6 7 10 14 16 17 17 15 14 14 14 13 11 10 10 10 9 8 6 5 5 5 4 3 4 4 4 5 4 2 4 5 7 7 7 6 4 2 2 5 5 5 4 4 2 2 3 6 6 4 7
9 9 8 9 8 7 7 6 5 4 3 3 3 3 3 3 4 4 4 5 5 6 6 5 5 5 4 4 4 5 4 3 3 4 5 7 8 10 11 14 17 19 17 15 13 13 14 14 13 12 10 9 9 9 7 6 7 6 5 4 6 5 4 6 4 0 2 5 5 4 5 6 5 3 2 4 5 5 5 4 4 1 2 3 3 5 8
8 7 6 6 5 6 5 4 3 3 3 3 3 3 3 3 4 5 4 5 6 7 7 7 6 5 5 5 4 4 5 5 6 7 6 7 9 10 12 15 18 18 15 13 13 14 15 15 15 14 11 8 7 8 8 7 6 6 6 6 7 5 4 8 7 3 2 3 3 3 3 4 4 3 0 1 1 3 4 5 6 3 1 2 5 8 9
6 5 5 4 3 4 4 4 3 3 3 3 2 3 3 2 3 4 5 6 7 7 7 7 6 5 4 3 3 5 7 8 8 7 6 7 9 11 14 16 18 17 14 13 13 14 15 15 16 16 12 8 6 5 7 8 6 6 7 8 7 4 3 7 8 6 4 3 4 5 4 4 3 2 2 1 3 2 2 3 4 3 2 3 6 8 10
6 6 6 5 3 4 3 3 2 2 2 2 1 2 2 2 3 4 5 7 7 7 6 6 5 4 4 4 5 7 8 7 6 5 7 9 10 12 15 16 17 17 15 12 12 12 13 13 14 14 12 8 6 5 5 7 6 7 8 8 5 2 1 4 7 6 4 4 5 5 3 1 1 1 2 3 3 3 1 1 2 2 2 4 6 9 11
6 5 5 4 3 3 2 2 3 3 3 3 2 3 3 3 4 4 5 7 7 7 6 5 4 5 7 7 8 9 8 6 6 8 9 10 11 13 15 16 17 16 14 12 10 11 13 13 13 13 13 10 6 5 4 6 7 8 7 5 2 1 1 1 4 5 5 5 5 4 3 2 2 4 4 2 3 4 3 1 2 2 1 2 4 8 10
3 4 4 2 2 2 2 2 2 2 3 3 3 4 4 4 4 5 6 6 7 7 6 5 5 7 9 9 8 8 7 7 9 10 11 12 13 14 16 17 17 16 14 11 9 11 13 15 14 15 17 13 6 3 3 6 8 9 6 3 2 2 1 3 2 5 5 4 4 6 7 6 5 6 5 3 2 4 4 1 2 2 1 1 1 3 5
3 3 3 2 2 3 2 3 3 4 4 4 4 5 5 5 6 6 6 7 7 7 6 6 6 8 9 9 8 8 9 9 11 12 13 14 14 15 16 18 17 15 11 9 9 12 15 16 15 15 13 5 3 2 6 8 8 8 5 2 1 2 2 4 3 4 4 3 3 5 5 4 3 3 3 2 3 4 3 2 2 1 1 2 2 1 1
3 3 2 2 2 2 2 3 4 4 4 5 5 6 6 6 7 7 7 8 8 8 7 7 6 7 8 9 9 9 9 10 11 13 13 14 15 15 16 17 15 12 10 8 8 12 17 16 12 11 9 4 1 4 8 9 8 7 4 0 2 2 1 3 1 3 3 3 3 5 7 5 2 1 2 2 2 3 2 3 2 2 2 2 2 2 1
3 2 1 1 2 2 3 4 4 4 5 5 6 6 7 7 8 8 8 9 8 8 7 7 7 7 8 9 9 10 10 9 9 9 10 11 12 13 13 13 13 12 11 10 9 13 19 17 10 6 5 3 5 7 7 6 6 5 2 1 3 3 1 1 2 3 3 3 3 4 5 4 3 2 2 2 1 2 2 3 3 3 2 1 1 1 1
1 1 1 1 3 4 4 5 5 5 6 6 7 7 8 8 8 9 9 8 8 7 7 7 7 7 7 8 9 9 9 9 9 8 8 9 9 9 10 11 11 10 10 8 10 15 19 15 7 5 6 5 5 6 5 3 4 5 3 2 4 4 2 2 2 3 4 5 4 2 1 2 5 5 3 2 2 2 3 3 3 4 3 1 1 1 1
1 2 2 3 4 5 5 6 6 6 6 7 8 8 9 9 9 10 9 8 8 8 7 7 8 7 8 8 9 9 9 9 9 8 7 6 5 5 7 9 8 5 5 10 15 18 17 11 5 4 6 5 4 4 5 4 4 6 5 3 3 5 5 3 2 3 4 5 4 2 4 5 6 5 1 2 3 4 4 3 3 3 3 2 1 1 1
2 3 3 4 5 5 6 6 6 7 7 8 8 9 9 9 9 10 9 9 8 8 8 8 9 9 9 9 9 10 10 9 9 8 7 7 7 7 7 7 7 8 11 14 16 15 12 10 9 7 6 5 6 6 7 6 4 4 3 1 3 6 6 4 3 3 4 5 5 5 6 5 4 3 2 3 4 4 4 4 4 3 2 2 2 1 1
3 3 4 4 5 5 6 6 7 7 7 8 8 9 9 8 9 9 9 9 9 9 9 9 9 9 10 10 9 10 10 10 10 10 10 9 9 8 7 6 7 9 11 13 12 9 7 8 10 8 6 6 8 10 8 5 2 3 2 4 6 6 7 6 5 5 5 4 5 6 7 6 5 4 3 2 4 5 4 4 4 4 3 3 3 2 1
3 3 4 4 5 5 6 6 7 7 7 7 8 8 9 9 9 9 9 9 10 10 9 9 9 9 10 10 9 10 11 11 11 11 10 9 7 6 5 5 5 7 10 11 11 8 5 6 7 7 6 8 12 12 10 6 3 3 5 7 6 6 6 6 6 6 6 5 5 5 6 7 6 4 2 1 3 5 5 4 4 4 4 3 3 3 3
4 4 4 4 4 5 6 6 7 7 7 8 9 9 9 9 9 9 9 9 10 9 9 9 9 9 9 9 9 10 10 10 9 9 9 7 4 2 2 2 2 4 8 10 8 5 6 7 8 9 11 13 14 13 11 7 5 5 6 7 7 7 6 6 6 7 6 5 5 5 5 5 5 5 3 3 4 4 5 5 4 4 4 4 4 3 2
4 4 4 4 4 5 6 7 7 7 7 8 9 9 8 7 7 8 8 9 9 9 9 9 9 9 9 9 9 9 9 9 9 9 8 5 3 4 4 3 3 4 8 10 6 3 7 10 10 11 13 14 13 12 11 9 6 5 6 7 7 7 7 6 7 8 8 7 6 6 6 5 3 3 4 5 5 4 5 6 6 5 5 5 4 3 1
4 4 4 5 5 6 6 7 8 8 9 9 10 10 8 7 7 7 8 8 8 9 9 8 8 9 9 8 8 8 9 10 11 9 6 3 3 6 7 7 6 5 7 9 6 3 6 9 9 9 10 11 10 10 9 8 6 5 6 7 7 7 8 7 7 8 9 9 8 6 6 6 5 3 4 5 6 6 6 6 6 6 5 4 4 4 4
4 4 5 5 6 6 6 7 7 8 9 8 8 7 6 5 5 6 7 8 8 8 8 7 7 8 8 8 7 7 8 9 10 7 4 2 2 5 5 5 5 6 7 8 6 4 7 10 10 9 9 9 8 6 4 5 6 6 7 8 7 7 7 7 7 7 9 9 8 6 5 6 6 6 6 6 6 6 6 6 5 5 6 6 6 6 5
4 4 5 6 7 7 6 6 7 7 7 8 7 7 6 6 5 6 7 7 6 6 7 7 6 6 7 7 7 7 7 7 7 6 4 2 2 4 5 5 6 7 6 6 4 5 7 9 10 11 12 11 7 3 2 2 4 5 6 8 8 7 7 7 7 8 8 8 8 7 6 5 6 6 6 7 7 7 8 9 8 7 8 8 9 9 8
5 5 6 7 7 6 6 6 7 7 7 8 8 7 7 6 6 5 5 5 5 6 6 5 4 4 5 6 7 8 9 7 4 3 4 5 5 5 6 6 7 8 8 6 5 7 8 9 8 10 13 12 7 3 1 3 5 6 7 8 8 8 8 8 9 10 11 10 9 8 6 5 6 7 8 8 8 8 8 9 9 8 9 11 11 9 8
6 6 6 6 5 5 5 5 5 6 7 7 7 6 5 5 5 5 5 5 6 6 5 4 3 4 4 6 7 8 9 7 3 3 5 6 5 5 6 6 6 7 9 7 5 6 8 9 9 10 13 12 7 3 4 7 6 5 6 6 5 5 6 7 8 9 9 9 9 10 9 8 9 9 8 8 9 10 10 9 10 11 12 12 13 11 10
5 6 6 6 6 6 6 6 5 5 6 6 5 5 6 6 6 5 4 5 5 5 4 3 3 4 6 7 7 5 3 3 3 3 3 3 3 4 6 6 5 6 7 6 4 4 7 9 10 11 12 10 6 3 6 10 8 3 3 5 5 4 4 5 6 6 6 8 10 12 13 13 13 12 10 9 11 13 13 11 11 12 12 12 12 13 12
Wind_Direction
254 221 201 250 263 262 256 259 285 325 23 43 49 36 351 328 304 94 62 86 106 72 56 55 47 42 47 47 44 43 43 42 42 42 39 35 32 28 23 20 17 16 15 12 8 8 7 2 352 346 338 326 320 313 286 267 259 231 210 201 195 191 188 188 187 180 177 180 179 176 180 178 170 171 173 163 159 169 168 153 146 151 151 141 136 151 172
283 256 203 218 302 292 289 45 21 25 45 59 66 43 11 23 78 83 85 99 89 66 61 65 55 50 52 50 45 42 41 39 40 41 40 36 33 29 25 22 20 20 20 19 16 14 12 9 4 357 350 341 331 317 293 269 257 240 217 202 198 198 196 196 193 183 179 181 180 177 178 173 169 172 167 159 166 173 158 148 149 150 144 138 143 168 185
291 296 238 162 303 299 43 55 32 28 43 52 57 40 20 23 46 62 123 112 84 70 69 64 54 50 50 46 43 40 38 36 37 40 40 38 34 30 28 26 23 25 29 28 22 20 18 14 9 6 360 351 337 321 305 282 269 255 222 203 202 204 202 202 198 186 180 183 183 177 172 168 166 164 160 162 171 163 148 148 147 141 141 145 158 183 196
309 352 346 34 22 19 66 51 28 24 35 47 58 48 32 20 10 14 73 97 81 83 79 67 57 51 50 45 38 36 34 34 38 40 39 39 37 33 31 28 26 29 34 33 27 26 26 23 18 15 8 358 347 331 312 291 283 271 227 208 208 208 204 201 197 187 181 181 180 174 168 165 163 163 163 165 163 156 153 151 142 142 155 161 170 189 197
355 29 7 27 50 71 77 33 19 23 27 38 60 53 38 27 12 7 52 63 64 78 76 68 59 51 49 46 38 33 33 35 39 42 41 40 41 38 35 32 30 32 35 34 32 31 30 28 27 24 17 10 1 344 322 292 268 250 223 209 206 204 199 190 184 182 180 177 174 170 166 166 166 167 168 165 161 160 157 150 148 158 172 176 183 194 199
342 45 34 6 258 213 116 29 14 26 39 49 63 54 35 28 22 22 49 58 59 67 70 73 73 61 52 50 43 37 37 40 43 45 44 43 43 41 39 37 35 36 38 40 40 40 37 35 34 34 33 27 17 359 340 324 183 179 178 178 181 181 178 175 173 173 172 170 170 170 170 170 171 170 170 168 168 167 162 157 163 171 181 188 190 192 198
295 82 70 328 261 148 107 62 16 14 50 76 77 64 38 27 24 24 42 59 60 67 79 86 89 80 65 54 45 38 38 43 46 48 47 46 44 43 43 44 43 44 45 45 44 43 43 42 42 45 45 39 31 30 29 50 111 124 125 142 162 165 162 167 171 169 166 166 168 171 172 172 172 172 172 171 171 172 168 167 172 177 186 191 184 180 185
243 189 198 256 129 109 87 62 27 15 24 60 74 66 38 25 21 17 31 59 63 72 91 100 107 101 76 54 42 35 36 41 45 48 48 47 48 48 47 50 51 51 50 50 48 46 47 49 50 51 52 48 44 49 59 72 90 99 95 110 137 150 152 160 167 166 165 168 169 169 170 172 173 172 172 173 174 176 177 178 181 185 188 185 178 175 177
234 222 75 98 138 117 54 35 24 19 16 12 31 69 46 27 20 15 20 48 58 67 93 107 132 130 84 50 33 30 35 41 45 50 51 49 52 54 52 54 56 56 55 53 52 51 50 51 52 53 54 55 55 58 63 69 80 97 94 91 105 120 126 140 154 160 163 165 164 162 165 170 172 173 175 179 182 185 188 190 191 195 198 198 195 189 185
259 222 128 122 169 146 42 16 8 7 356 341 341 124 70 25 15 17 21 39 53 51 46 46 167 202 87 44 16 21 33 43 48 54 57 53 53 54 52 51 53 53 54 53 52 54 54 52 51 50 52 54 57 60 64 66 71 80 85 84 90 96 96 110 133 147 154 157 157 159 163 166 170 175 181 187 190 192 196 197 195 197 203 205 204 199 195
255 236 173 111 116 96 23 351 349 351 337 315 268 180 82 15 10 19 25 35 50 44 30 29 17 356 96 55 7 20 37 48 53 59 60 56 56 56 54 51 49 47 48 49 49 51 52 52 50 49 49 52 54 56 58 61 64 66 68 69 71 74 76 86 109 127 138 144 146 151 157 159 164 174 183 188 189 189 191 192 190 192 199 205 205 201 197
248 250 131 86 83 84 4 332 332 344 340 284 224 204 47 14 12 25 33 37 42 39 47 52 43 48 99 86 36 40 52 56 56 58 55 51 53 57 58 57 53 50 49 49 48 48 49 51 51 51 51 52 54 55 55 56 57 58 60 61 60 61 67 73 85 102 116 126 130 135 144 155 163 169 175 180 183 185 188 191 191 189 193 196 195 194 191
273 85 106 97 98 62 349 322 318 334 330 211 227 5 21 13 20 37 45 51 59 63 74 80 76 79 93 87 68 66 70 65 58 56 54 54 57 60 61 61 57 54 51 49 49 48 50 53 54 54 56 56 54 55 58 56 53 51 56 61 61 61 65 70 75 82 93 103 110 116 128 144 146 144 148 156 161 166 171 172 173 175 177 179 180 186 193
49 104 114 111 113 43 347 322 318 344 345 207 81 62 51 35 43 59 61 70 86 89 88 91 94 93 88 82 78 77 78 75 67 60 58 58 58 58 58 59 59 56 52 50 49 48 50 53 56 55 55 56 54 54 55 53 50 50 54 57 60 63 64 67 72 75 79 87 94 101 109 121 126 126 128 131 132 137 146 152 157 160 161 166 174 184 203
52 98 89 87 103 7 346 330 328 10 20 114 110 85 71 61 67 81 82 85 93 95 94 93 92 90 85 82 80 77 75 76 72 62 55 52 53 52 48 48 53 56 55 52 50 48 46 48 52 55 54 51 50 49 49 48 48 49 51 53 56 60 59 59 61 63 67 73 79 84 89 92 92 95 98 103 111 115 116 117 121 123 115 101 91 111 209
21 73 61 54 97 353 9 32 72 62 63 93 102 91 81 76 84 95 97 97 96 93 94 95 93 90 87 84 84 80 74 70 65 57 49 46 50 50 42 38 43 49 53 54 53 52 49 45 45 50 54 52 49 44 41 41 44 46 50 53 54 55 54 55 55 55 58 64 72 80 86 85 79 76 75 78 87 95 98 99 103 105 101 94 83 69 57
58 75 88 120 121 79 63 70 83 83 80 84 89 92 92 91 96 104 103 101 98 94 95 96 93 90 88 87 89 87 81 75 69 65 59 52 49 49 46 42 41 42 46 49 51 54 55 52 48 46 47 50 51 47 40 38 40 42 44 46 49 51 52 53 56 59 59 58 59 62 67 72 70 68 72 79 84 92 102 107 109 112 119 124 123 110 100
95 91 103 109 98 86 79 79 81 83 83 85 88 92 95 96 102 107 107 104 100 97 99 96 91 88 86 86 85 82 79 76 71 67 62 56 52 58 63 58 50 47 47 46 46 47 48 54 58 53 46 44 47 48 46 43 46 49 46 43 42 45 47 49 53 58 61 62 64 64 64 68 72 71 79 96 103 112 118 116 104 98 102 106 107 113 116
115 93 103 107 101 95 91 87 83 81 82 83 86 89 93 99 103 104 105 104 102 100 99 95 91 89 86 83 81 76 70 64 59 54 50 48 48 54 59 58 52 49 46 43 43 42 41 46 52 51 45 42 43 45 45 44 49 56 55 53 50 48 48 48 48 50 51 52 59 69 73 78 88 98 107 116 122 125 125 123 119 116 118 117 108 100 92
98 103 106 102 96 94 93 90 89 90 88 88 90 92 93 97 101 102 103 103 102 99 95 92 90 88 84 81 79 76 69 61 54 46 42 42 42 39 39 41 40 39 39 38 37 36 36 38 42 46 44 39 39 42 40 39 49 54 48 44 47 51 58 57 52 52 51 44 39 46 55 59 64 66 58 59 85 116 126 132 135 136 140 145 144 139 133
105 112 110 102 94 88 84 85 93 101 104 104 105 103 100 99 99 100 101 101 101 100 96 93 93 91 89 90 88 81 76 69 61 56 50 44 41 37 33 33 33 31 32 34 32 30 31 30 30 40 44 36 34 36 31 34 49 52 39 27 25 29 49 67 61 54 56 55 43 32 34 38 43 46 42 38 42 62 97 132 152 160 159 161 172 178 168
112 110 106 105 101 91 85 87 91 96 103 108 108 106 105 104 105 106 109 110 110 108 102 100 102 99 100 112 107 86 62 46 47 58 66 52 40 40 39 35 31 27 28 32 27 24 29 28 22 23 28 26 27 30 25 25 34 34 31 36 30 21 27 50 60 54 53 58 56 43 29 23 26 35 40 36 35 39 49 70 122 160 170 176 195 214 210
107 104 101 99 99 100 100 99 95 94 97 100 100 100 102 106 112 116 115 113 115 113 107 107 111 101 93 106 101 73 46 34 31 40 48 37 28 32 36 29 23 18 19 22 20 17 23 25 17 13 14 16 18 23 22 20 23 24 29 42 42 26 23 36 47 49 48 51 53 52 45 27 12 15 28 34 37 43 46 48 54 70 84 103 138 163 142
106 106 105 104 102 101 97 93 89 91 96 97 95 95 98 104 113 115 108 104 109 114 111 102 91 81 75 71 55 40 44 47 33 18 26 30 24 22 22 17 15 13 10 9 10 10 14 15 7 1 5 13 13 14 17 16 18 27 31 22 7 10 52 61 50 43 46 49 49 49 52 49 27 8 16 29 37 44 49 51 51 51 51 53 65 75 75
103 104 106 105 101 98 94 87 82 83 88 90 89 90 92 96 101 104 102 99 100 106 108 92 70 65 67 56 37 29 37 40 26 13 11 19 16 15 15 11 8 6 3 1 359 359 1 2 358 351 355 8 10 7 9 9 11 25 35 20 3 8 86 93 58 40 35 39 42 45 51 55 50 37 34 31 26 30 43 49 50 50 47 41 41 46 44
105 108 108 104 102 103 103 100 96 92 90 90 92 92 92 89 86 85 86 85 84 89 96 88 72 65 58 50 42 35 29 23 19 15 11 8 8 9 8 4 1 358 355 353 350 347 346 348 351 352 355 2 5 1 358 354 358 17 29 20 12 22 63 78 52 41 35 32 38 46 47 47 55 66 61 41 21 19 27 26 25 38 44 37 31 30 26
110 113 112 111 112 108 100 98 100 100 96 95 97 95 90 86 82 78 74 71 71 72 72 67 58 51 48 43 28 15 11 8 7 6 3 3 4 1 358 358 358 354 349 345 343 341 340 339 339 339 342 347 352 357 355 343 340 360 17 13 6 16 35 44 38 34 26 11 17 45 58 55 57 65 64 51 42 45 38 22 13 19 32 34 32 24 12
114 110 108 107 109 108 105 103 103 99 91 89 90 88 82 79 78 75 67 60 58 57 57 52 33 18 32 33 353 336 351 4 360 354 354 358 359 356 354 354 352 348 344 342 338 334 334 337 338 337 335 334 337 344 347 337 329 335 354 10 6 0 9 22 31 34 24 358 349 12 61 80 66 53 50 43 39 49 53 39 32 35 27 24 26 16 359
106 103 95 91 97 104 107 104 100 95 89 86 84 83 77 66 62 61 52 40 37 26 14 16 7 353 355 356 344 338 340 342 342 347 358 4 2 347 344 345 345 343 341 340 337 333 329 326 327 334 336 331 328 333 334 327 322 319 330 358 5 346 329 329 342 31 40 1 345 3 47 79 71 43 43 49 43 43 39 13 23 67 49 21 17 10 351
104 104 103 105 110 114 111 107 103 99 95 89 74 62 54 41 38 41 27 7 354 350 349 340 325 326 326 320 324 331 328 326 343 9 11 357 338 329 333 338 342 342 338 336 338 339 337 331 324 322 325 324 322 325 323 315 310 301 305 326 316 296 314 330 324 5 46 16 354 8 34 43 21 351 48 62 45 31 24 8 357 118 89 40 20 345 322
105 105 115 121 121 117 112 111 114 103 79 64 51 41 36 28 22 19 8 348 336 338 340 324 308 311 308 299 313 329 323 317 354 10 350 327 325 336 341 339 340 339 336 333 336 337 337 334 324 311 308 310 310 308 306 305 299 287 286 309 301 290 342 5 356 96 42 7 358 13 25 15 357 344 41 63 40 28 25 356 323 295 85 39 345 292 303
113 115 124 123 118 114 106 99 101 92 65 44 34 27 29 30 16 4 358 347 336 333 328 317 309 302 287 281 292 298 289 299 323 334 328 322 331 339 338 334 337 340 336 331 333 332 330 329 323 311 299 293 295 296 293 293 296 287 277 285 287 288 16 30 30 46 25 353 356 9 8 4 4 1 323 240 308 31 40 354 322 325 32 351 314 300 312
128 127 127 114 85 83 84 75 67 61 51 48 32 8 8 18 4 353 350 342 332 327 320 315 311 299 280 260 238 249 274 303 322 327 326 326 328 330 330 332 338 341 332 325 328 330 329 329 328 319 303 278 260 274 284 281 280 273 262 266 276 286 32 38 35 37 27 2 352 341 332 334 349 13 50 331 289 287 50 16 358 27 34 324 314 320 327
81 86 99 94 63 58 68 61 38 24 23 35 11 333 335 351 349 346 343 334 327 325 322 313 298 270 251 240 244 262 282 304 316 316 321 322 319 322 326 331 337 336 329 324 325 323 321 323 323 320 312 287 237 232 282 286 264 251 256 263 269 266 5 15 14 10 353 339 340 337 330 333 329 329 36 32 343 299 289 22 46 66 21 329 326 333 337
84 87 91 83 69 67 50 11 2 350 339 344 338 320 319 329 328 326 327 322 317 318 319 309 279 263 267 274 279 282 288 293 293 298 308 313 315 318 323 328 334 334 330 326 321 316 320 323 315 310 313 302 251 220 273 282 254 245 255 265 275 255 148 44 359 345 335 328 328 324 309 274 263 277 280 308 332 316 306 345 104 105 64 350 335 339 347
105 111 111 94 69 57 15 343 338 325 316 320 319 310 307 311 313 313 315 312 308 309 311 303 285 284 292 298 292 282 279 283 287 293 301 306 309 313 318 324 331 331 327 324 323 323 328 327 317 311 311 301 257 217 281 278 259 251 244 221 232 261 144 105 31 340 337 323 291 290 299 303 306 303 285 263 296 308 288 222 128 114 149 211 286 334 354
66 72 81 61 35 26 6 338 334 331 318 305 301 302 303 306 310 310 307 306 305 302 299 297 291 290 297 306 302 285 274 274 279 285 294 299 302 306 313 320 323 323 321 322 326 330 331 329 327 331 332 323 180 221 279 271 262 262 248 195 194 255 146 96 46 335 337 331 287 294 320 328 312 301 285 254 269 285 263 182 125 125 224 234 236 240 281
88 78 70 47 19 360 334 321 324 326 314 304 304 305 301 300 303 301 298 299 300 296 292 296 297 292 294 302 304 297 286 282 282 284 288 293 296 300 307 312 314 313 310 303 307 327 336 337 341 354 5 26 85 289 280 262 252 256 255 358 357 283 169 90 32 309 327 344 323 328 342 343 323 311 316 289 267 260 221 160 150 196 244 258 248 224 228
123 121 110 34 326 321 319 316 313 308 302 302 307 307 302 299 298 294 292 293 293 292 293 293 291 289 287 289 292 295 296 297 296 293 293 297 298 297 304 312 308 294 284 282 296 325 335 336 342 357 349 293 246 253 261 250 238 235 236 359 327 287 277 30 323 305 319 313 296 318 340 340 328 310 281 264 268 257 224 190 175 185 214 260 248 209 206
165 201 235 283 297 305 307 306 304 303 302 304 307 306 303 301 296 290 289 291 292 292 294 292 287 285 284 282 286 294 298 297 296 295 297 303 302 300 312 321 308 277 267 289 322 331 330 328 324 325 318 291 253 251 260 251 231 228 243 314 309 290 293 304 290 299 311 300 288 274 240 284 310 311 270 233 247 248 230 202 172 176 192 220 230 208 161
265 275 280 287 293 298 301 301 301 301 299 298 300 303 303 301 293 286 284 290 293 293 294 295 293 290 289 289 293 298 298 296 297 298 298 299 296 294 309 320 316 297 309 330 333 331 332 337 341 322 313 313 312 309 312 310 278 250 237 244 275 283 293 303 299 301 305 305 303 264 234 269 308 321 263 223 244 236 212 187 179 192 201 202 207 226 198
269 276 283 287 289 293 297 298 299 300 298 296 298 302 303 298 290 284 283 287 291 291 291 291 290 291 293 293 292 292 292 291 292 290 281 271 265 266 282 304 315 319 323 328 329 330 332 336 336 330 319 314 315 315 317 317 292 233 207 254 296 281 282 293 293 283 287 296 298 282 271 286 315 321 257 243 249 240 221 202 194 195 208 213 213 246 307
274 281 281 285 290 296 301 302 300 298 299 299 301 305 305 300 294 291 290 288 287 288 289 288 286 289 291 289 288 290 289 286 285 284 280 276 275 271 265 272 295 310 320 330 338 340 329 312 307 310 321 334 331 326 324 324 282 201 244 320 313 279 266 271 269 264 272 290 294 288 287 295 303 304 294 261 239 237 237 219 200 200 216 218 213 226 249
269 271 271 281 297 302 301 299 298 299 303 307 306 305 303 301 296 294 292 290 287 286 286 284 284 286 287 286 287 291 289 285 285 283 279 279 284 277 257 254 281 308 325 336 340 339 327 307 298 298 311 323 321 317 315 318 310 278 292 308 306 283 270 271 266 261 266 273 279 287 293 293 292 298 325 313 253 242 229 210 201 208 213 214 226 245 244
257 263 271 285 298 296 292 297 303 307 312 313 307 299 295 298 300 298 294 292 290 286 284 283 283 283 284 285 288 291 290 288 286 280 276 279 281 251 206 199 241 294 323 341 345 325 298 294 293 297 305 309 308 305 303 298 281 270 280 294 300 293 279 268 261 259 259 260 272 288 291 284 285 292 290 278 272 256 228 209 205 212 213 216 234 247 240
256 263 268 270 277 284 291 301 309 308 303 299 294 289 289 300 309 307 301 297 294 290 287 284 282 282 284 288 292 293 291 286 279 275 276 282 259 222 222 233 246 291 336 356 3 309 291 298 299 299 301 301 299 297 293 281 263 253 268 288 299 297 287 275 267 263 257 254 262 275 273 264 274 296 286 278 285 283 249 223 211 212 223 235 244 243 226
254 260 269 276 285 290 295 302 307 302 291 283 283 286 293 304 311 310 305 301 298 296 291 287 285 286 287 287 289 291 294 298 295 286 276 269 255 251 261 273 276 296 341 360 3 339 334 338 331 319 312 306 299 292 283 269 254 252 271 287 293 289 281 275 269 265 261 253 246 255 268 267 258 259 276 289 299 293 265 239 217 206 215 234 247 240 222
252 258 271 284 291 290 290 296 299 296 292 292 296 302 310 316 317 313 310 305 301 300 297 289 285 289 291 287 281 278 286 303 309 298 269 248 279 274 272 279 284 299 334 352 349 341 354 0 359 355 348 332 314 301 282 253 241 250 271 282 284 281 277 274 270 268 265 254 239 236 257 271 267 263 271 283 289 281 267 257 240 214 213 226 236 236 225
252 262 273 275 272 274 287 299 299 298 310 326 334 336 338 335 325 315 312 310 310 309 301 289 285 295 299 291 278 265 261 278 298 298 278 265 280 274 273 285 296 303 323 341 329 309 327 347 359 5 3 355 347 359 14 297 265 263 266 265 261 260 263 264 258 254 253 249 241 236 238 252 260 259 257 262 267 266 264 260 245 222 219 230 235 232 227
250 263 274 274 271 276 292 302 300 303 320 335 337 332 330 326 317 312 314 315 318 319 312 302 303 314 304 287 279 272 263 258 272 306 295 278 268 268 280 293 295 293 299 309 307 301 309 322 336 349 354 358 11 46 30 294 274 268 271 271 265 258 259 259 256 256 257 252 242 235 237 252 259 255 253 255 255 255 262 268 259 237 227 232 235 236 238
260 268 277 288 294 294 294 296 300 307 317 323 324 322 318 310 304 305 312 318 323 329 330 330 335 326 298 286 293 296 284 271 277 324 311 292 280 278 282 285 284 283 289 298 303 295 295 301 311 327 340 353 14 30 322 303 288 264 264 276 275 260 259 266 267 264 262 255 241 231 231 238 242 244 250 257 250 239 238 251 262 260 251 239 231 229 235
262 264 273 289 300 297 286 280 284 297 306 308 311 317 319 314 306 302 308 316 318 317 316 327 343 332 307 296 303 319 318 295 293 298 281 263 274 294 295 292 285 286 297 319 341 320 298 298 305 315 327 344 9 4 314 314 318 300 256 272 284 276 266 273 276 267 254 246 239 234 235 237 238 236 239 251 259 255 245 237 242 257 264 255 240 233 231